TimeCDT,TemperatureF,Dew PointF,Humidity,Sea Level PressureIn,VisibilityMPH,Wind Direction,Wind SpeedMPH,Gust SpeedMPH,PrecipitationIn,Events,Conditions,WindDirDegrees,DateUTC
12:53 AM,41.0,37.0,86,30.04,10.0,South,3.5,-,N/A,,Clear,190,2013-10-20 05:53:00
1:53 AM,39.9,36.0,86,30.03,10.0,SSW,3.5,-,N/A,,Clear,200,2013-10-20 06:53:00
2:53 AM,39.9,37.0,89,30.01,10.0,SSW,4.6,-,N/A,,Clear,200,2013-10-20 07:53:00
3:53 AM,39.9,36.0,86,30.00,10.0,SSW,5.8,-,N/A,,Clear,210,2013-10-20 08:53:00
4:53 AM,39.9,36.0,86,29.99,10.0,SSW,5.8,-,N/A,,Clear,200,2013-10-20 09:53:00
5:53 AM,39.9,36.0,86,29.99,10.0,SSW,4.6,-,N/A,,Clear,200,2013-10-20 10:53:00
6:53 AM,39.9,36.0,86,30.00,10.0,SSW,6.9,-,N/A,,Clear,200,2013-10-20 11:53:00
7:53 AM,41.0,37.0,86,30.01,10.0,SSW,5.8,-,N/A,,Clear,200,2013-10-20 12:53:00
8:53 AM,46.0,39.9,79,30.02,10.0,South,5.8,-,N/A,,Clear,190,2013-10-20 13:53:00
9:53 AM,53.1,42.1,66,30.02,10.0,SSW,10.4,-,N/A,,Clear,200,2013-10-20 14:53:00
10:53 AM,57.9,39.9,51,30.01,10.0,SSW,11.5,20.7,N/A,,Clear,210,2013-10-20 15:53:00
11:53 AM,61.0,39.0,44,30.00,10.0,SW,12.7,21.9,N/A,,Clear,230,2013-10-20 16:53:00
12:53 PM,63.0,37.9,40,29.98,10.0,SSW,12.7,21.9,N/A,,Clear,200,2013-10-20 17:53:00
1:53 PM,64.9,37.9,37,29.94,10.0,South,15.0,18.4,N/A,,Clear,180,2013-10-20 18:53:00
2:53 PM,64.9,37.0,36,29.92,10.0,South,15.0,21.9,N/A,,Clear,180,2013-10-20 19:53:00
3:53 PM,64.9,37.0,36,29.90,10.0,South,16.1,-,N/A,,Clear,170,2013-10-20 20:53:00
4:53 PM,64.0,37.9,38,29.89,10.0,South,13.8,-,N/A,,Clear,190,2013-10-20 21:53:00
5:53 PM,61.0,42.1,50,29.89,10.0,South,10.4,-,N/A,,Clear,170,2013-10-20 22:53:00
6:53 PM,55.9,42.1,60,29.91,10.0,South,8.1,-,N/A,,Clear,170,2013-10-20 23:53:00
7:53 PM,54.0,41.0,62,29.92,10.0,SSE,3.5,-,N/A,,Clear,150,2013-10-21 00:53:00
8:53 PM,51.1,42.1,71,29.94,10.0,Calm,Calm,-,N/A,,Partly Cloudy,0,2013-10-21 01:53:00
9:53 PM,52.0,44.1,74,29.96,10.0,Calm,Calm,-,N/A,,Overcast,0,2013-10-21 02:53:00
10:53 PM,53.1,43.0,69,29.97,10.0,SSW,4.6,-,N/A,,Overcast,210,2013-10-21 03:53:00
11:53 PM,52.0,43.0,71,29.96,10.0,SSW,8.1,-,N/A,,Mostly Cloudy,200,2013-10-21 04:53:00